Regional Weather Roundup
Issued by NWS Bismarck, ND

Home | Current Version | Previous Version | Text Only | Print | Product List | Glossary On
Versions: 1 2 3 4 5 6 7 8 9 10 11 12 13 14 15 16 17 18 19 20 21 22 23 24 25 26 27 28 29 30 31 32 33 34 35 36 37 38 39 40 41 42 43 44 45 46 47 48 49 50
000
ASUS43 KBIS 200559
RWRBIS

NWR BROADCAST TEXT
NATIONAL WEATHER SERVICE BISMARCK ND
100 AM CDT WED AUG 20 2014

NOTE: "FAIR" INDICATES FEW OR NO CLOUDS BELOW 12,000 FEET WITH NO
SIGNIFICANT WEATHER AND/OR OBSTRUCTIONS TO VISIBILITY.


CITY           SKY/WX    TMP DP  RH WIND       PRES   REMARKS
WILLISTON      MOCLDY    75  60  59 SE6       29.64S
MINOT          FAIR      65  60  84 SE6       29.69F
MINOT AFB      NOT AVBL
BISMARCK       PTCLDY    69  61  75 E5        29.73S
DICKINSON      NOT AVBL
GARRISON         N/A     68  64  87 SE6       29.71S
HETTINGER ARPT CLEAR     67  57  70 SE6       29.73S
JAMESTOWN      NOT AVBL
BEACH            N/A     66  59  77 SE9       29.69S
CARRINGTON     FAIR      64  64 100 SE7       29.77S
CROSBY         FAIR      72  61  68 SE17G26   29.63F
HARVEY         FAIR      66  64  94 SE7       29.74S
HAZEN          FAIR      64  61  88 NE7       29.70F
LINTON         FAIR      66  64  94 SE13      29.74F
MANDAN         FAIR      70  61  73 SE8       29.74S
STANLEY        FAIR      66  66 100 SE8       29.70S
TIOGA          FAIR      63  63 100 E6        29.71S
WATFORD CITY   FAIR      70  63  78 SE12      29.63F
$$

CITY           SKY/WX    TMP DP  RH WIND       PRES   REMARKS
GRAND FORKS    FAIR      66  62  87 SE5       29.76R
GRAND FORKS AF NOT AVBL
DEVILS LAKE    FAIR      70  63  78 S12       29.74S
FARGO          FAIR      67  63  87 SE6       29.76F
CAVALIER       MOCLDY    64  63  94 S5        29.76R
GRAFTON        FAIR      64  64 100 S6        29.76R
GWINNER        CLEAR     66  66 100 S5        29.79S
LANGDON        FAIR      64  63  94 SE9       29.77S
ROLLA          CLOUDY    57  57 100 CALM      29.77S
$$

CITY           SKY/WX    TMP DP  RH WIND       PRES   REMARKS
ABERDEEN       CLEAR     63  62  97 SE8       29.77S
MOBRIDGE       CLEAR     69  63  81 SE10      29.71F
BUFFALO          N/A     73  58  59 SE18      29.65F
RAPID CITY     CLOUDY    68  61  78 S5        29.75S
GLASGOW        PTCLDY    69  49  48 SE5       29.58F
SIDNEY         MOCLDY    70  59  68 S3        29.64S
WOLF POINT     PTCLDY    63  47  55 E9        29.61R
GLENDIVE       MOCLDY    73  57  56 S8        29.66S
MILES CITY     CLOUDY    76  48  37 SE7       29.64S
BAKER          PTCLDY    71  56  58 SE15      29.70F
$$

CITY           SKY/WX    TMP DP  RH WIND       PRES   REMARKS
BILLINGS       MOCLDY    70  44  39 S7        29.74S
GREAT FALLS    MOCLDY    66  47  50 CALM      29.77R
REGINA         TSTM      68  63  83 SE17G23   29.61F
$$




USA.gov is the U.S. government's official web portal to all federal, state and local government web resources and services.